EIN263 EGBB-EIDW

Flight info

Callsign EIN263
Flight time N/A
Altitude 24000
Route LUVUM DCT NANTI Y53 WAL/N0440F280 L10 PENIL/N0415F240 L28 LELDO/N0439F280 M145 BAGSO BAGSO3R
Aircraft A320/M-SDE3FGHIRWY/LB1

Departure

Time N/A
Airport Birmingham Airport (EGBB)

Arrival

Time 2026-05-04 10:16
Airport Dublin Airport (EIDW)
Time Latitude Longitude Altitude Speed Heading
2026-05-04 10:10 53.51098 -6.67316 3765 ft 241 kts 184°
2026-05-04 10:10 53.49428 -6.67573 3691 ft 240 kts 184°
2026-05-04 10:11 53.47774 -6.67609 3607 ft 237 kts 165°
2026-05-04 10:11 53.46370 -6.66324 3533 ft 230 kts 130°
2026-05-04 10:11 53.45634 -6.64025 3435 ft 223 kts 96°
2026-05-04 10:11 53.45468 -6.61449 3295 ft 222 kts 91°
2026-05-04 10:12 53.45348 -6.58870 3094 ft 221 kts 91°
2026-05-04 10:12 53.45219 -6.56304 2991 ft 221 kts 91°
2026-05-04 10:12 53.45086 -6.53744 2986 ft 221 kts 92°
2026-05-04 10:12 53.44951 -6.51164 2919 ft 222 kts 93°
2026-05-04 10:13 53.44817 -6.48621 2692 ft 217 kts 93°
2026-05-04 10:13 53.44684 -6.46117 2400 ft 212 kts 92°
2026-05-04 10:13 53.44555 -6.43700 2122 ft 204 kts 93°
2026-05-04 10:13 53.44433 -6.41405 1877 ft 189 kts 91°
2026-05-04 10:14 53.44320 -6.39318 1609 ft 170 kts 91°
2026-05-04 10:14 53.44220 -6.37456 1384 ft 153 kts 91°
2026-05-04 10:16 53.43615 -6.26153 218 ft 91 kts 96°
2026-05-04 10:16 53.43577 -6.25542 217 ft 33 kts 95°
2026-05-04 10:16 53.43521 -6.25196 211 ft 26 kts 130°
2026-05-04 10:16 53.43433 -6.24992 213 ft 20 kts 154°
2026-05-04 10:17 53.43383 -6.25126 211 ft 15 kts 276°
2026-05-04 10:17 53.43395 -6.25297 211 ft 16 kts 276°
2026-05-04 10:19 53.43132 -6.25487 219 ft 20 kts 156°
2026-05-04 10:19 53.42991 -6.25385 214 ft 25 kts 156°
2026-05-04 10:19 53.42826 -6.25265 213 ft 26 kts 156°
2026-05-04 10:19 53.42678 -6.25090 213 ft 26 kts 153°
2026-05-04 10:20 53.42505 -6.24966 211 ft 28 kts 156°
2026-05-04 10:20 53.42356 -6.24820 211 ft 13 kts 107°
2026-05-04 10:20 53.42335 -6.24683 215 ft 12 kts 148°
2026-05-04 10:20 53.42303 -6.24628 215 ft 0 kts 135°